DW7984 Weather Reports


time (UTC)temp
C
wind
direction
speed
KPH
gust
KPH
rain 1hr
cm
rain 24hr
cm
rain mn
cm
humidity
%
barometer
mb
20260502221549 15 61 4.8 8.0 0.00 0.03 0.00 87 1054.1
20260502221452 15 62 4.8 8.0 0.00 0.03 0.00 87 1054.1
20260502221348 15 62 4.8 8.0 0.00 0.03 0.00 87 1054.1
20260502221315 15 62 4.8 8.0 0.00 0.03 0.00 87 1054.0
20260502221248 15 61 4.8 8.0 0.00 0.03 0.00 87 1054.0
20260502221148 15 61 4.8 8.0 0.00 0.03 0.00 87 1054.0
20260502221045 15 60 4.8 8.0 0.00 0.03 0.00 87 1054.0
20260502220944 15 61 4.8 8.0 0.00 0.03 0.00 87 1054.0
20260502220845 15 60 4.8 8.0 0.00 0.03 0.00 86 1054.0
20260502220812 15 61 4.8 8.0 0.00 0.03 0.00 86 1054.0
20260502220744 15 60 4.8 8.0 0.00 0.03 0.00 86 1054.0
20260502220654 15 63 4.8 8.0 0.00 0.03 0.00 86 1054.0
20260502220648 15 61 4.8 8.0 0.00 0.03 0.00 86 1054.0
20260502220635 15 60 4.8 12.9 0.00 0.03 0.00 86 1054.1
20260502220625 15 61 4.8 12.9 0.00 0.03 0.00 86 1054.1
20260502220345 15 60 4.8 12.9 0.00 0.03 0.00 86 1054.0
20260502220120 15 60 4.8 12.9 0.00 0.03 0.03 86 1054.0
20260502215809 15 60 4.8 12.9 0.00 0.03 0.03 86 1054.1
20260502215743 15 62 4.8 12.9 0.00 0.03 0.03 86 1054.0
20260502215641 15 61 4.8 12.9 0.00 0.03 0.03 86 1054.0
20260502215541 15 60 4.8 12.9 0.00 0.03 0.03 86 1054.1
20260502215441 15 44 4.8 9.7 0.00 0.03 0.03 86 1054.1
20260502215341 15 45 4.8 9.7 0.00 0.03 0.03 86 1054.1
20260502215322 15 43 4.8 9.7 0.00 0.03 0.03 86 1054.1
20260502215312 15 44 4.8 9.7 0.00 0.03 0.03 86 1054.2
20260502215305 15 43 3.2 9.7 0.00 0.03 0.03 86 1054.2
20260502214941 15 158 3.2 8.0 0.00 0.03 0.03 86 1054.2
20260502214848 15 159 3.2 8.0 0.00 0.03 0.03 86 1054.2
20260502214831 15 160 3.2 8.0 0.00 0.03 0.03 86 1054.2
20260502214816 15 160 1.6 8.0 0.00 0.03 0.03 86 1054.2
20260502214802 15 160 1.6 8.0 0.00 0.03 0.03 86 1054.3
20260502214744 15 160 1.6 8.0 0.00 0.03 0.03 85 1054.3
20260502214736 15 162 1.6 3.2 0.00 0.03 0.03 85 1054.3
20260502214508 15 162 1.6 3.2 0.00 0.03 0.03 85 1054.3
20260502214455 15 162 1.6 6.4 0.00 0.03 0.03 85 1054.4
20260502214447 15 162 1.6 6.4 0.00 0.03 0.03 85 1054.4
20260502214439 15 162 1.6 6.4 0.00 0.03 0.03 85 1054.4
20260502214432 15 162 1.6 6.4 0.00 0.03 0.03 85 1054.3
20260502214150 15 162 1.6 6.4 0.00 0.03 0.03 85 1054.4
20260502213918 15 162 1.6 6.4 0.00 0.03 0.03 85 1054.3
20260502213316 15 162 0.0 6.4 0.00 0.03 0.03 85 1054.3
20260502213309 15 162 0.0 6.4 0.00 0.03 0.03 85 1054.3
20260502213259 15 162 1.6 3.2 0.00 0.03 0.03 85 1054.3
20260502212937 15 162 1.6 3.2 0.00 0.03 0.03 85 1054.3
20260502212841 15 162 1.6 3.2 0.00 0.03 0.03 85 1054.4
20260502212809 15 162 1.6 3.2 0.00 0.03 0.03 85 1054.4
20260502212739 15 162 1.6 3.2 0.00 0.03 0.03 85 1054.4
20260502212709 15 162 1.6 3.2 0.00 0.03 0.03 85 1054.4
20260502212701 15 162 1.6 3.2 0.00 0.03 0.03 85 1054.4
20260502212309 15 162 1.6 3.2 0.00 0.03 0.03 85 1054.3
20260502212238 15 162 1.6 3.2 0.00 0.03 0.03 85 1054.3
20260502212137 15 162 1.6 3.2 0.00 0.03 0.03 85 1054.3
20260502212038 15 162 1.6 3.2 0.00 0.03 0.03 84 1054.3
20260502211937 15 162 1.6 3.2 0.00 0.03 0.03 84 1054.3
20260502211809 15 162 0.0 3.2 0.00 0.03 0.03 84 1054.3
20260502211738 15 162 0.0 3.2 0.00 0.03 0.03 84 1054.3
20260502211637 15 162 0.0 3.2 0.00 0.03 0.03 84 1054.3
20260502211537 15 162 0.0 1.6 0.00 0.03 0.03 84 1054.3
20260502211502 15 162 0.0 1.6 0.00 0.03 0.03 84 1054.3
20260502211436 15 162 0.0 1.6 0.00 0.03 0.03 84 1054.3
20260502211425 15 162 0.0 1.6 0.00 0.03 0.03 84 1054.4
20260502211402 15 162 0.0 1.6 0.00 0.03 0.03 84 1054.4
20260502211132 15 162 0.0 1.6 0.00 0.03 0.03 84 1054.3
20260502211113 15 162 0.0 1.6 0.00 0.03 0.03 84 1054.4
20260502210533 15 162 0.0 1.6 0.00 0.03 0.03 84 1054.4
20260502210433 15 162 0.0 1.6 0.00 0.03 0.03 84 1054.4
20260502210309 15 162 0.0 0.0 0.00 0.03 0.03 84 1054.4
20260502210234 15 162 0.0 0.0 0.00 0.03 0.03 84 1054.4
20260502210133 15 162 0.0 0.0 0.00 0.03 0.03 83 1054.5
20260502210035 15 162 0.0 0.0 0.00 0.03 0.03 83 1054.4
20260502205947 15 162 0.0 0.0 0.00 0.03 0.03 83 1054.5
20260502205931 15 162 0.0 0.0 0.00 0.03 0.03 83 1054.5
20260502205917 15 162 0.0 0.0 0.00 0.03 0.03 83 1054.4
20260502205646 15 162 0.0 0.0 0.00 0.03 0.03 83 1054.4
20260502205637 15 162 0.0 0.0 0.00 0.03 0.03 83 1054.4
20260502205622 15 162 0.0 0.0 0.00 0.03 0.03 83 1054.4
20260502205610 15 162 0.0 0.0 0.00 0.03 0.03 83 1054.4
20260502205127 15 162 0.0 3.2 0.00 0.03 0.03 83 1054.3
20260502205119 15 162 0.0 3.2 0.00 0.03 0.03 83 1054.3
20260502204852 15 162 0.0 3.2 0.00 0.03 0.03 83 1054.3
20260502204529 15 162 0.0 3.2 0.00 0.03 0.03 83 1054.3
20260502204427 15 162 0.0 3.2 0.00 0.03 0.03 82 1054.3
20260502204323 15 162 0.0 3.2 0.00 0.03 0.03 82 1054.3
20260502204308 15 162 0.0 6.4 0.00 0.03 0.03 82 1054.3
20260502204217 15 162 1.6 6.4 0.00 0.03 0.03 82 1054.3
20260502204130 15 163 0.0 6.4 0.00 0.03 0.03 82 1054.3
20260502204123 15 162 0.0 6.4 0.00 0.03 0.03 82 1054.3
20260502204108 15 162 0.0 6.4 0.00 0.03 0.03 82 1054.3
20260502203844 15 162 0.0 6.4 0.00 0.03 0.03 82 1054.3
20260502203833 15 162 0.0 6.4 0.00 0.03 0.03 82 1054.3
20260502203511 15 162 0.0 6.4 0.00 0.03 0.03 82 1054.3
20260502203451 15 162 0.0 6.4 0.00 0.03 0.03 81 1054.3
20260502203433 15 162 0.0 6.4 0.00 0.03 0.03 81 1054.3
20260502203110 15 162 0.0 0.0 0.00 0.03 0.03 81 1054.2
20260502203009 15 162 0.0 0.0 0.00 0.03 0.03 81 1054.2
20260502202906 15 162 0.0 0.0 0.00 0.03 0.03 81 1054.3
20260502202806 15 162 0.0 0.0 0.00 0.03 0.03 81 1054.3
20260502202705 15 162 0.0 0.0 0.00 0.03 0.03 81 1054.3
20260502202604 15 162 0.0 1.6 0.00 0.03 0.03 81 1054.3
20260502202504 15 162 0.0 1.6 0.00 0.03 0.03 81 1054.3
20260502202404 15 162 0.0 1.6 0.00 0.03 0.03 81 1054.4
20260502202306 15 162 0.0 1.6 0.00 0.03 0.03 81 1054.4
20260502202204 15 162 0.0 1.6 0.00 0.03 0.03 81 1054.3
20260502202132 15 162 0.0 1.6 0.00 0.03 0.03 81 1054.3
20260502202127 15 162 0.0 1.6 0.00 0.03 0.03 81 1054.3
20260502201806 15 162 0.0 1.6 0.00 0.03 0.03 81 1054.4
20260502201703 15 162 0.0 1.6 0.00 0.03 0.03 81 1054.4
20260502201604 15 162 0.0 1.6 0.00 0.03 0.03 80 1054.4
20260502201503 15 162 0.0 1.6 0.00 0.03 0.03 80 1054.4
20260502201403 15 162 0.0 1.6 0.00 0.03 0.03 80 1054.4
20260502201307 15 162 0.0 1.6 0.00 0.03 0.03 80 1054.3
20260502201233 15 162 0.0 1.6 0.00 0.03 0.03 81 1054.3
20260502201221 15 162 0.0 1.6 0.00 0.03 0.03 81 1054.3
20260502200942 15 162 0.0 1.6 0.00 0.03 0.03 81 1054.3
20260502200927 15 162 0.0 1.6 0.00 0.03 0.03 81 1054.3
20260502200601 15 162 0.0 1.6 0.00 0.03 0.03 80 1054.3
20260502200501 15 162 0.0 1.6 0.00 0.03 0.03 80 1054.2
20260502200417 15 163 0.0 1.6 0.00 0.03 0.03 80 1054.2
20260502200401 15 162 0.0 1.6 0.00 0.03 0.03 80 1054.2
20260502200346 15 162 0.0 3.2 0.00 0.03 0.03 80 1054.2
20260502200124 15 162 1.6 3.2 0.00 0.03 0.03 80 1054.2
20260502195803 15 162 1.6 3.2 0.00 0.03 0.03 80 1054.3
20260502195700 15 162 0.0 3.2 0.00 0.03 0.03 80 1054.3
20260502195600 15 162 0.0 3.2 0.00 0.03 0.03 80 1054.3
20260502195459 15 162 0.0 3.2 0.00 0.03 0.03 80 1054.3
20260502195358 15 162 0.0 3.2 0.00 0.03 0.03 80 1054.3
20260502195311 15 162 0.0 3.2 0.00 0.03 0.03 80 1054.2
20260502195257 15 162 0.0 3.2 0.00 0.03 0.03 80 1054.2
20260502195155 15 162 0.0 3.2 0.00 0.03 0.03 80 1054.2
20260502195053 15 162 0.0 3.2 0.00 0.03 0.03 80 1054.2
20260502194952 15 162 0.0 3.2 0.00 0.03 0.03 80 1054.3
20260502194852 15 162 0.0 0.0 0.00 0.03 0.03 80 1054.3
20260502194806 15 162 0.0 0.0 0.00 0.03 0.03 80 1054.2
20260502194751 15 162 0.0 0.0 0.00 0.03 0.03 80 1054.2
20260502194648 15 162 0.0 1.6 0.00 0.03 0.03 79 1054.2
20260502194624 15 162 0.0 1.6 0.00 0.03 0.03 79 1054.2
20260502194616 15 162 0.0 1.6 0.00 0.03 0.03 79 1054.1
20260502194340 15 162 0.0 1.6 0.00 0.03 0.03 79 1054.1
20260502194332 15 162 0.0 1.6 0.00 0.03 0.03 79 1054.1
20260502194324 15 162 0.0 1.6 0.00 0.03 0.03 79 1054.0
20260502193944 15 162 0.0 1.6 0.00 0.03 0.03 79 1054.0
20260502193844 15 162 0.0 1.6 0.00 0.03 0.03 79 1054.0
20260502193804 15 162 0.0 1.6 0.00 0.03 0.03 79 1054.0
20260502193745 15 162 0.0 1.6 0.00 0.03 0.03 79 1054.0
20260502193650 15 162 0.0 1.6 0.00 0.03 0.03 79 1054.0
20260502193643 15 162 0.0 1.6 0.00 0.03 0.03 79 1054.0
20260502193631 15 162 0.0 1.6 0.00 0.03 0.03 79 1054.0
20260502193622 15 162 0.0 1.6 0.00 0.03 0.03 79 1053.9
20260502193358 15 162 0.0 1.6 0.00 0.03 0.03 78 1054.0
20260502193035 15 162 0.0 3.2 0.00 0.03 0.03 78 1054.0
20260502192932 15 162 0.0 3.2 0.00 0.03 0.03 78 1054.0
20260502192857 15 162 0.0 3.2 0.00 0.03 0.03 78 1054.0
20260502192850 15 162 0.0 3.2 0.00 0.03 0.03 78 1054.0
20260502192840 15 162 0.0 3.2 0.00 0.03 0.03 78 1054.0
20260502192834 15 162 0.0 3.2 0.00 0.03 0.03 77 1054.0
20260502192825 15 162 0.0 3.2 0.00 0.03 0.03 77 1054.0
20260502192803 15 162 0.0 3.2 0.00 0.03 0.03 77 1053.9
20260502192310 16 162 0.0 3.2 0.00 0.03 0.03 77 1054.0
20260502192304 16 162 0.0 3.2 0.00 0.03 0.03 77 1054.0
20260502192254 16 162 0.0 6.4 0.00 0.03 0.03 77 1054.0
20260502192026 16 162 1.6 6.4 0.00 0.03 0.03 77 1053.9
20260502191533 16 162 1.6 6.4 0.00 0.03 0.03 76 1053.9
20260502191522 16 162 1.6 6.4 0.00 0.03 0.03 76 1053.9
20260502191220 16 162 1.6 6.4 0.00 0.03 0.03 76 1054.0
20260502191203 16 162 1.6 6.4 0.00 0.03 0.03 76 1053.9
20260502191155 16 162 1.6 6.4 0.00 0.03 0.03 76 1053.9
20260502190806 16 162 1.6 6.4 0.00 0.03 0.03 75 1053.8
20260502190719 16 162 0.0 6.4 0.00 0.03 0.03 75 1053.9
20260502190619 16 162 0.0 3.2 0.00 0.03 0.03 75 1053.9
20260502190518 16 161 1.6 3.2 0.00 0.03 0.03 75 1053.9
20260502190417 16 162 1.6 3.2 0.00 0.03 0.03 75 1053.9
20260502190304 16 162 1.6 6.4 0.00 0.03 0.03 75 1053.9
20260502190213 16 162 1.6 6.4 0.00 0.03 0.03 75 1054.0
20260502190112 16 162 1.6 6.4 0.00 0.03 0.03 75 1054.0
20260502190012 16 162 1.6 6.4 0.00 0.03 0.03 75 1054.0
20260502185912 16 162 1.6 6.4 0.00 0.03 0.03 74 1054.0
20260502185803 16 162 1.6 8.0 0.00 0.03 0.03 74 1053.9
20260502185738 16 162 3.2 8.0 0.00 0.03 0.03 74 1053.9
20260502185729 16 160 3.2 8.0 0.00 0.03 0.03 74 1053.9
20260502185406 16 160 3.2 8.0 0.00 0.03 0.03 74 1053.9
20260502185305 16 160 3.2 8.0 0.00 0.03 0.03 74 1053.9
20260502185204 16 160 3.2 8.0 0.00 0.03 0.03 73 1053.9
20260502185104 16 160 4.8 8.0 0.00 0.03 0.03 73 1054.0
20260502185005 16 160 4.8 8.0 0.00 0.03 0.03 73 1054.0
20260502184905 16 160 3.2 8.0 0.00 0.03 0.03 73 1054.0
20260502184836 16 160 3.2 8.0 0.00 0.03 0.03 72 1053.9
20260502184825 16 160 3.2 8.0 0.00 0.03 0.03 72 1053.9
20260502184501 16 161 3.2 8.0 0.00 0.03 0.03 72 1053.9
20260502184402 16 161 3.2 8.0 0.00 0.03 0.03 72 1053.8
20260502184313 16 161 3.2 8.0 0.00 0.03 0.03 72 1053.9
20260502184259 16 161 3.2 8.0 0.00 0.03 0.03 72 1054.0
20260502184249 16 160 3.2 8.0 0.00 0.03 0.03 72 1053.9
20260502184240 16 161 3.2 8.0 0.00 0.03 0.03 72 1053.9
20260502184231 16 161 3.2 8.0 0.00 0.03 0.03 71 1053.9
20260502184005 16 162 3.2 8.0 0.00 0.03 0.03 71 1053.9
20260502183722 16 162 1.6 8.0 0.00 0.03 0.03 71 1053.9
20260502183358 16 163 1.6 8.0 0.00 0.03 0.03 71 1053.9
20260502183342 16 163 1.6 8.0 0.00 0.03 0.03 71 1054.0
20260502183335 16 163 1.6 8.0 0.00 0.03 0.03 71 1054.0
20260502183322 16 162 1.6 8.0 0.00 0.03 0.03 71 1054.0
20260502183043 16 163 1.6 8.0 0.00 0.03 0.03 71 1054.0
20260502183031 16 162 1.6 8.0 0.00 0.03 0.03 71 1054.0
20260502182758 16 163 1.6 8.0 0.00 0.03 0.03 71 1054.0
20260502182658 16 163 1.6 8.0 0.00 0.03 0.03 71 1054.0
20260502182559 16 163 1.6 8.0 0.00 0.03 0.03 71 1054.0
20260502182456 16 163 1.6 8.0 0.00 0.03 0.03 71 1054.0
20260502182358 16 163 1.6 9.7 0.00 0.03 0.03 71 1054.1
20260502182309 16 162 1.6 9.7 0.00 0.03 0.03 71 1054.1
20260502182258 16 162 1.6 9.7 0.00 0.03 0.03 71 1054.1
20260502182156 16 162 1.6 9.7 0.00 0.03 0.03 71 1054.0
20260502182056 16 163 3.2 9.7 0.00 0.03 0.03 71 1054.0
20260502182042 16 162 3.2 9.7 0.00 0.03 0.03 71 1054.0
20260502182028 16 163 3.2 11.3 0.00 0.03 0.03 71 1054.0
20260502181749 16 163 4.8 11.3 0.00 0.03 0.03 71 1054.0
20260502181649 16 163 4.8 11.3 0.00 0.03 0.03 70 1054.0
20260502181549 16 162 4.8 11.3 0.00 0.03 0.03 70 1054.0
20260502181448 16 163 4.8 11.3 0.00 0.03 0.03 70 1053.9
20260502181342 16 161 4.8 11.3 0.00 0.03 0.03 70 1053.9
20260502181304 16 162 4.8 11.3 0.00 0.03 0.03 70 1053.9
20260502181242 16 163 4.8 11.3 0.00 0.03 0.03 70 1053.9
20260502181218 16 162 4.8 11.3 0.00 0.03 0.03 71 1053.9
20260502181211 16 123 4.8 11.3 0.00 0.03 0.03 71 1053.8
20260502180813 16 174 3.2 8.0 0.00 0.03 0.03 71 1053.8
20260502180803 16 222 3.2 8.0 0.00 0.03 0.03 71 1053.8
20260502180750 16 222 3.2 11.3 0.00 0.03 0.03 71 1053.9
20260502180738 16 224 3.2 11.3 0.00 0.03 0.03 71 1053.9
20260502180730 17 125 3.2 11.3 0.00 0.03 0.03 71 1054.0
20260502180720 17 125 3.2 11.3 0.00 0.03 0.03 71 1054.0
20260502180132 17 125 3.2 11.3 0.00 0.03 0.03 72 1054.0
20260502164324 18 127 8.0 14.5 0.00 0.03 0.03 63 1054.3
20260502164318 18 125 8.0 14.5 0.00 0.03 0.03 63 1054.3
20260502164305 18 64 8.0 14.5 0.00 0.03 0.03 63 1054.3
20260502164039 18 110 8.0 14.5 0.00 0.03 0.03 62 1054.3
20260502164026 18 110 8.0 14.5 0.00 0.03 0.03 61 1054.3
20260502163732 18 112 6.4 14.5 0.00 0.03 0.03 60 1054.5
20260502163632 18 113 6.4 14.5 0.00 0.03 0.03 60 1054.5
20260502163532 18 115 6.4 14.5 0.00 0.03 0.03 59 1054.5
20260502163434 18 131 6.4 14.5 0.00 0.03 0.03 59 1054.5
20260502163336 18 130 8.0 14.5 0.00 0.03 0.03 60 1054.6
20260502163325 18 106 8.0 16.1 0.00 0.03 0.03 61 1054.6
20260502163318 18 106 8.0 17.7 0.00 0.03 0.03 61 1054.5
20260502163306 18 95 8.0 17.7 0.00 0.03 0.03 62 1054.6
20260502163300 18 100 8.0 17.7 0.00 0.03 0.03 61 1054.6
20260502163250 18 100 6.4 17.7 0.00 0.03 0.03 61 1054.5
20260502163238 18 97 6.4 17.7 0.00 0.03 0.03 61 1054.5
20260502162752 18 135 6.4 17.7 0.00 0.03 0.03 61 1054.5
20260502162429 18 133 6.4 17.7 0.00 0.03 0.03 61 1054.6
20260502162357 18 139 6.4 17.7 0.00 0.03 0.03 61 1054.6
20260502162348 18 122 6.4 17.7 0.00 0.03 0.03 61 1054.6
20260502162341 18 134 6.4 16.1 0.00 0.03 0.03 61 1054.7
20260502162331 18 127 6.4 16.1 0.00 0.03 0.03 61 1054.7
20260502162323 18 127 6.4 16.1 0.00 0.03 0.03 61 1054.7
20260502162312 18 127 6.4 16.1 0.00 0.03 0.03 60 1054.8
20260502162042 18 128 8.0 16.1 0.00 0.03 0.03 60 1054.7
20260502162036 18 127 8.0 16.1 0.00 0.03 0.03 60 1054.7
20260502161813 18 120 8.0 16.1 0.00 0.03 0.03 61 1054.8
20260502161805 18 120 8.0 17.7 0.00 0.03 0.03 61 1054.7
20260502161749 18 114 9.7 19.3 0.00 0.03 0.03 61 1054.8
20260502161525 18 115 9.7 19.3 0.00 0.03 0.03 60 1054.7
20260502161257 18 108 9.7 19.3 0.00 0.03 0.03 59 1054.8
20260502161247 18 177 9.7 19.3 0.00 0.03 0.03 59 1054.8
20260502161017 18 122 9.7 19.3 0.00 0.03 0.03 59 1054.7
20260502161006 18 125 9.7 19.3 0.00 0.03 0.03 59 1054.7
20260502160459 19 88 8.0 19.3 0.00 0.03 0.03 59 1054.7
20260502160449 19 124 6.4 17.7 0.00 0.03 0.03 59 1054.6
20260502160442 19 115 6.4 17.7 0.00 0.03 0.03 59 1054.6
20260502160112 19 83 8.0 17.7 0.00 0.03 0.03 59 1054.6
20260502152342 18 243 3.2 14.5 0.00 0.03 0.03 56 1055.0
20260502152251 18 225 3.2 14.5 0.00 0.03 0.03 57 1055.1
20260502152244 18 179 3.2 12.9 0.00 0.03 0.03 57 1055.1
20260502152233 18 160 3.2 12.9 0.00 0.03 0.03 57 1055.1
20260502152224 18 160 3.2 12.9 0.00 0.03 0.03 57 1055.1
20260502152213 19 160 3.2 12.9 0.00 0.03 0.03 59 1055.2
20260502152201 19 98 3.2 12.9 0.00 0.03 0.03 60 1055.2
20260502152154 19 181 3.2 8.0 0.00 0.03 0.03 60 1055.2
20260502152147 19 180 3.2 8.0 0.00 0.03 0.03 60 1055.2
20260502151917 19 180 4.8 9.7 0.00 0.03 0.03 58 1055.2
20260502151906 19 180 4.8 9.7 0.00 0.03 0.03 58 1055.2
20260502151858 19 180 4.8 9.7 0.00 0.03 0.03 58 1055.1
20260502151153 19 178 4.8 9.7 0.00 0.03 0.03 59 1055.1
20260502150829 19 181 4.8 9.7 0.00 0.03 0.03 58 1055.1
20260502150729 19 180 4.8 11.3 0.00 0.03 0.03 58 1055.1
20260502150630 19 187 4.8 11.3 0.00 0.03 0.03 57 1055.1
20260502150605 19 201 4.8 11.3 0.00 0.03 0.03 57 1055.1
20260502150557 19 183 4.8 11.3 0.00 0.03 0.03 56 1055.1
20260502150543 19 183 4.8 11.3 0.00 0.03 0.03 57 1055.1
20260502150300 19 163 4.8 11.3 0.00 0.03 0.03 57 1055.1
20260502150252 19 106 6.4 11.3 0.00 0.03 0.03 57 1055.1
20260502130720 19 112 3.2 14.5 0.00 0.03 0.03 53 1056.5
20260502130618 19 112 3.2 14.5 0.00 0.03 0.03 54 1056.5
20260502130517 19 173 3.2 14.5 0.00 0.03 0.03 54 1056.5
20260502130418 19 174 3.2 14.5 0.00 0.03 0.03 54 1056.5
20260502130350 19 174 3.2 11.3 0.00 0.03 0.03 55 1056.5
20260502130330 19 214 3.2 9.7 0.00 0.03 0.03 56 1056.5
20260502130320 19 225 3.2 11.3 0.00 0.03 0.03 56 1056.5
20260502130313 19 226 3.2 11.3 0.00 0.03 0.03 57 1056.5
20260502130305 19 225 3.2 11.3 0.00 0.03 0.03 57 1056.5
20260502130257 18 225 4.8 11.3 0.00 0.03 0.03 57 1056.5
20260502130240 18 225 4.8 11.3 0.00 0.03 0.03 57 1056.5
20260502130232 18 225 4.8 11.3 0.00 0.03 0.03 56 1056.5
20260502130220 18 225 4.8 12.9 0.00 0.03 0.03 57 1056.5
20260502130213 18 228 4.8 12.9 0.00 0.03 0.03 59 1056.5
20260502130204 18 216 6.4 14.5 0.00 0.03 0.03 60 1056.5
20260502123753 19 133 6.4 17.7 0.00 0.03 0.03 61 1056.4
20260502123746 19 134 6.4 17.7 0.00 0.03 0.03 61 1056.4
20260502123736 19 136 8.0 17.7 0.00 0.03 0.03 61 1056.4
20260502123503 19 138 8.0 17.7 0.00 0.03 0.03 61 1056.4
20260502123448 19 126 8.0 17.7 0.00 0.03 0.03 60 1056.5
20260502123210 19 108 6.4 17.7 0.00 0.03 0.03 60 1056.5
20260502123109 19 68 6.4 17.7 0.00 0.03 0.03 60 1056.4
20260502123009 19 77 6.4 17.7 0.00 0.03 0.03 59 1056.4
20260502122910 19 70 6.4 17.7 0.00 0.03 0.03 59 1056.3
20260502122810 19 66 4.8 17.7 0.00 0.03 0.03 61 1056.3
20260502122709 19 69 6.4 17.7 0.00 0.03 0.03 62 1056.4
20260502122611 19 68 6.4 17.7 0.00 0.03 0.03 63 1056.4
20260502122604 19 67 6.4 17.7 0.00 0.03 0.03 62 1056.4
20260502122556 19 117 6.4 17.7 0.00 0.03 0.03 62 1056.5
20260502122547 19 78 6.4 14.5 0.00 0.03 0.03 63 1056.4
20260502122536 19 79 6.4 14.5 0.00 0.03 0.03 62 1056.5
20260502122529 19 75 6.4 14.5 0.00 0.03 0.03 62 1056.5
20260502122045 19 77 6.4 14.5 0.00 0.03 0.03 61 1056.6
20260502122027 18 77 6.4 14.5 0.00 0.03 0.03 61 1056.6
20260502122011 18 75 6.4 14.5 0.00 0.03 0.03 61 1056.5
20260502121739 18 97 4.8 11.3 0.00 0.03 0.03 62 1056.6
20260502121731 18 109 4.8 11.3 0.00 0.03 0.03 63 1056.7
20260502121501 18 128 4.8 11.3 0.00 0.03 0.03 63 1056.7
20260502121449 18 128 4.8 11.3 0.00 0.03 0.03 63 1056.8
20260502121223 18 118 4.8 14.5 0.00 0.03 0.03 63 1056.8
20260502120902 18 110 4.8 14.5 0.00 0.03 0.03 64 1056.8
20260502120803 18 110 4.8 14.5 0.00 0.03 0.03 64 1056.9
20260502120740 18 75 4.8 14.5 0.00 0.03 0.03 63 1056.8
20260502120733 18 74 4.8 14.5 0.00 0.03 0.03 63 1056.8
20260502120724 18 91 4.8 14.5 0.00 0.03 0.03 64 1056.8
20260502120402 18 125 4.8 14.5 0.00 0.03 0.03 64 1056.8
20260502120347 18 81 6.4 14.5 0.00 0.03 0.03 65 1056.9
20260502120334 18 70 6.4 14.5 0.00 0.03 0.03 65 1056.9
20260502120327 18 71 6.4 17.7 0.00 0.03 0.03 65 1056.9
20260502115921 18 62 6.4 17.7 0.00 0.03 0.03 66 1056.9
20260502115602 18 60 6.4 17.7 0.00 0.03 0.03 65 1056.8
20260502115504 18 60 6.4 17.7 0.00 0.03 0.03 65 1056.8
20260502115404 18 62 6.4 17.7 0.00 0.03 0.03 65 1056.8
20260502115305 18 59 6.4 17.7 0.00 0.03 0.03 65 1056.8
20260502115216 18 52 4.8 17.7 0.00 0.03 0.03 66 1056.8
20260502115203 18 58 4.8 12.9 0.00 0.03 0.03 66 1056.8
20260502115101 18 117 4.8 11.3 0.00 0.03 0.03 67 1056.9
20260502115002 18 115 4.8 11.3 0.00 0.03 0.03 66 1056.9
20260502114902 18 115 4.8 11.3 0.00 0.03 0.03 66 1056.9
20260502114813 18 115 4.8 11.3 0.00 0.03 0.03 65 1056.9
20260502114804 18 115 4.8 11.3 0.00 0.03 0.03 66 1057.0
20260502114757 18 116 4.8 12.9 0.00 0.03 0.03 66 1057.0
20260502114743 18 116 4.8 12.9 0.00 0.03 0.03 65 1057.0
20260502114735 18 116 4.8 12.9 0.00 0.03 0.03 66 1056.9
20260502114451 18 117 4.8 12.9 0.00 0.03 0.03 66 1057.0
20260502114441 18 117 4.8 12.9 0.00 0.03 0.03 66 1057.0
20260502113858 18 122 6.4 14.5 0.00 0.03 0.03 66 1057.0
20260502113758 18 122 6.4 14.5 0.00 0.03 0.03 66 1057.0
20260502113738 18 123 6.4 14.5 0.00 0.03 0.03 66 1057.0
20260502113729 18 127 6.4 14.5 0.00 0.03 0.03 66 1057.0
20260502113717 18 126 6.4 14.5 0.00 0.03 0.03 66 1057.0
20260502113706 18 127 6.4 14.5 0.00 0.03 0.03 66 1057.0
20260502113436 18 128 6.4 14.5 0.00 0.03 0.03 66 1057.0
20260502113157 18 129 6.4 14.5 0.00 0.03 0.03 66 1057.1
20260502113057 18 107 4.8 14.5 0.00 0.03 0.03 67 1057.1
20260502112957 18 104 6.4 14.5 0.00 0.03 0.03 67 1057.1
20260502112858 18 93 6.4 14.5 0.00 0.03 0.03 66 1057.1
20260502112758 18 93 6.4 14.5 0.00 0.03 0.03 67 1057.1
20260502112716 18 92 6.4 14.5 0.00 0.03 0.03 68 1057.1
20260502112657 18 95 6.4 14.5 0.00 0.03 0.03 68 1057.1
20260502112558 18 67 6.4 12.9 0.00 0.03 0.03 68 1057.1
20260502112457 18 67 6.4 12.9 0.00 0.03 0.03 67 1057.1
20260502112358 18 61 6.4 12.9 0.00 0.03 0.03 67 1057.1
20260502112258 18 61 6.4 12.9 0.00 0.03 0.03 67 1057.1
20260502112217 18 62 6.4 12.9 0.00 0.03 0.03 67 1057.2
20260502112159 18 61 6.4 12.9 0.00 0.03 0.03 67 1057.2
20260502112058 18 62 6.4 12.9 0.00 0.03 0.03 67 1057.2
20260502112030 18 91 6.4 12.9 0.00 0.03 0.03 68 1057.2
20260502112019 18 149 6.4 12.9 0.00 0.03 0.03 68 1057.2
20260502111716 18 93 6.4 11.3 0.00 0.03 0.03 68 1057.2
20260502111655 18 93 6.4 11.3 0.00 0.03 0.03 68 1057.2
20260502111555 18 94 6.4 11.3 0.00 0.03 0.03 68 1057.2
20260502111455 18 95 6.4 12.9 0.00 0.03 0.03 68 1057.2
20260502111356 18 97 4.8 12.9 0.00 0.03 0.03 68 1057.2
20260502111332 18 95 4.8 12.9 0.00 0.03 0.03 68 1057.2
20260502111323 18 96 4.8 12.9 0.00 0.03 0.03 68 1057.2
20260502111315 18 95 4.8 12.9 0.00 0.03 0.03 68 1057.2
20260502111032 18 97 4.8 12.9 0.00 0.03 0.03 68 1057.2
20260502111020 18 100 4.8 12.9 0.00 0.03 0.03 69 1057.3
20260502111010 18 99 4.8 14.5 0.00 0.03 0.03 69 1057.3
20260502111000 18 101 4.8 14.5 0.00 0.03 0.03 69 1057.4
20260502110949 18 99 4.8 14.5 0.00 0.03 0.03 69 1057.4
20260502110942 18 99 4.8 14.5 0.00 0.03 0.03 69 1057.4
20260502110929 18 54 4.8 14.5 0.00 0.03 0.03 68 1057.4
20260502110701 18 54 6.4 14.5 0.00 0.03 0.03 68 1057.4
20260502110652 18 54 8.0 16.1 0.00 0.03 0.03 68 1057.4
20260502110644 18 54 8.0 16.1 0.00 0.03 0.03 69 1057.4
20260502105931 18 124 8.0 16.1 0.00 0.03 0.03 69 1057.3
20260502105641 18 124 8.0 16.1 0.00 0.03 0.03 69 1057.4
20260502105609 18 112 8.0 16.1 0.00 0.03 0.03 68 1057.3
20260502105601 18 76 8.0 16.1 0.00 0.03 0.03 69 1057.3
20260502105238 18 80 6.4 16.1 0.00 0.03 0.03 69 1057.3
20260502105206 18 74 6.4 16.1 0.00 0.03 0.03 70 1057.3
20260502105137 18 67 6.4 16.1 0.00 0.03 0.03 70 1057.3
20260502105039 18 144 6.4 14.5 0.00 0.03 0.03 70 1057.3
20260502104938 18 81 6.4 14.5 0.00 0.03 0.03 70 1057.3
20260502104839 18 81 6.4 14.5 0.00 0.03 0.03 69 1057.4
20260502104706 18 79 6.4 14.5 0.00 0.03 0.03 70 1057.4
20260502104635 18 79 6.4 14.5 0.00 0.03 0.03 70 1057.4
20260502104535 18 81 4.8 14.5 0.00 0.03 0.03 70 1057.4
20260502104435 18 128 4.8 14.5 0.00 0.03 0.03 70 1057.4
20260502104336 18 47 6.4 11.3 0.00 0.03 0.03 70 1057.4
20260502104234 18 45 6.4 14.5 0.00 0.03 0.03 69 1057.4
20260502104206 18 44 6.4 14.5 0.00 0.03 0.03 70 1057.4
20260502104134 18 44 8.0 14.5 0.00 0.03 0.03 70 1057.4
20260502104029 18 43 8.0 16.1 0.00 0.03 0.03 70 1057.4
20260502103945 18 124 8.0 16.1 0.00 0.03 0.03 71 1057.4
20260502103936 18 122 8.0 16.1 0.00 0.03 0.03 72 1057.5
20260502103925 18 97 8.0 16.1 0.00 0.03 0.03 71 1057.4
20260502103629 18 74 8.0 16.1 0.00 0.03 0.03 71 1057.4
20260502103529 18 74 8.0 16.1 0.00 0.03 0.03 71 1057.5
20260502103435 18 87 8.0 16.1 0.00 0.03 0.03 71 1057.5
20260502103426 18 90 8.0 16.1 0.00 0.03 0.03 72 1057.5
20260502103417 18 116 8.0 16.1 0.00 0.03 0.03 72 1057.4
20260502103407 18 92 8.0 16.1 0.00 0.03 0.03 71 1057.4
20260502103354 18 95 8.0 16.1 0.00 0.03 0.03 71 1057.5
20260502103344 18 152 8.0 14.5 0.00 0.03 0.03 72 1057.4
20260502102851 17 70 8.0 14.5 0.00 0.03 0.03 71 1057.4
20260502102840 17 73 8.0 14.5 0.00 0.03 0.03 71 1057.4
20260502102549 17 77 8.0 14.5 0.00 0.03 0.03 71 1057.4
20260502102540 17 127 6.4 14.5 0.00 0.03 0.03 72 1057.4
20260502102215 17 114 6.4 14.5 0.00 0.03 0.03 72 1057.5
20260502102209 17 108 6.4 14.5 0.00 0.03 0.03 72 1057.5
20260502102116 17 104 6.4 14.5 0.00 0.03 0.03 72 1057.5
20260502102015 17 122 6.4 14.5 0.00 0.03 0.03 72 1057.5
20260502101916 17 68 6.4 14.5 0.00 0.03 0.03 72 1057.5
20260502101813 17 64 6.4 14.5 0.00 0.03 0.03 72 1057.5
20260502101715 17 64 6.4 14.5 0.00 0.03 0.03 72 1057.5
20260502101708 17 65 6.4 14.5 0.00 0.03 0.03 72 1057.5
20260502101612 17 140 6.4 14.5 0.00 0.03 0.03 73 1057.5
20260502101509 17 141 8.0 14.5 0.00 0.03 0.03 73 1057.5
20260502101458 17 141 8.0 14.5 0.00 0.03 0.03 72 1057.5
20260502101446 17 142 8.0 14.5 0.00 0.03 0.03 72 1057.5
20260502101426 17 80 8.0 14.5 0.00 0.03 0.03 72 1057.6
20260502101105 17 125 6.4 14.5 0.00 0.03 0.03 72 1057.5
20260502101004 17 115 6.4 14.5 0.00 0.03 0.03 72 1057.6
20260502100904 17 84 6.4 14.5 0.00 0.03 0.03 71 1057.5
20260502100803 17 88 6.4 14.5 0.00 0.03 0.03 71 1057.5
20260502100710 17 90 6.4 14.5 0.00 0.03 0.03 71 1057.5
20260502100603 17 90 6.4 14.5 0.00 0.03 0.03 71 1057.6
20260502100503 17 89 4.8 12.9 0.00 0.03 0.03 71 1057.6
20260502100404 17 87 6.4 11.3 0.00 0.03 0.03 71 1057.6
20260502100304 17 86 6.4 12.9 0.00 0.03 0.03 71 1057.7
20260502100208 17 85 6.4 12.9 0.00 0.03 0.03 71 1057.6
20260502100135 17 85 6.4 12.9 0.00 0.03 0.03 71 1057.6
20260502100127 17 85 6.4 12.9 0.00 0.03 0.03 71 1057.6
20260502091431 17 127 4.8 11.3 0.00 0.03 0.03 78 1058.0
20260502091418 17 127 4.8 11.3 0.00 0.03 0.03 78 1058.0
20260502091407 17 128 4.8 11.3 0.00 0.03 0.03 77 1058.0
20260502091143 17 135 4.8 14.5 0.00 0.03 0.03 76 1058.0
20260502090650 17 130 4.8 14.5 0.00 0.03 0.03 76 1058.0
20260502090624 17 131 4.8 14.5 0.00 0.03 0.03 76 1057.9
20260502090617 17 130 4.8 14.5 0.00 0.03 0.03 76 1058.0
20260502090250 17 131 4.8 14.5 0.00 0.03 0.03 76 1058.0
20260502090202 17 131 4.8 14.5 0.00 0.03 0.03 76 1058.0
20260502090149 17 131 4.8 14.5 0.00 0.03 0.03 76 1058.0
20260502071448 15 73 1.6 4.8 0.00 0.00 0.00 89 1058.1
20260502071343 15 73 1.6 4.8 0.00 0.00 0.00 89 1058.1
20260502071247 15 73 1.6 4.8 0.00 0.00 0.00 89 1058.1
20260502071238 15 74 1.6 4.8 0.00 0.00 0.00 89 1058.2
20260502071223 15 73 1.6 4.8 0.00 0.00 0.00 89 1058.1
20260502070950 15 73 1.6 4.8 0.00 0.00 0.00 89 1058.1
20260502070922 15 73 1.6 4.8 0.00 0.00 0.00 89 1058.1
20260502070656 15 73 1.6 3.2 0.00 0.00 0.00 89 1058.1
20260502070338 15 73 1.6 4.8 0.00 0.00 0.00 89 1058.1
20260502070237 15 73 1.6 4.8 0.00 0.00 0.00 89 1058.1
20260502070201 15 73 1.6 4.8 0.00 0.00 0.00 89 1058.1
20260502070138 15 73 1.6 4.8 0.00 0.00 0.00 89 1058.1
20260502070038 15 74 1.6 4.8 0.00 0.00 0.00 89 1058.0
20260502065940 15 74 1.6 4.8 0.00 0.00 0.00 89 1058.1
20260502065838 15 73 1.6 4.8 0.00 0.00 0.00 89 1058.1
20260502065735 15 74 1.6 4.8 0.00 0.00 0.00 89 1058.1
20260502065700 15 73 1.6 4.8 0.00 0.00 0.00 89 1058.1
20260502065639 15 73 1.6 4.8 0.00 0.00 0.00 89 1058.1
20260502065535 15 73 1.6 4.8 0.00 0.00 0.00 89 1058.1
20260502065510 15 73 1.6 4.8 0.00 0.00 0.00 89 1058.1
20260502065459 15 73 1.6 4.8 0.00 0.00 0.00 89 1058.1
20260502065201 15 73 1.6 4.8 0.00 0.00 0.00 89 1058.2
20260502065137 15 73 1.6 4.8 0.00 0.00 0.00 89 1058.2
20260502065038 15 73 1.6 4.8 0.00 0.00 0.00 89 1058.2
20260502064936 15 73 1.6 4.8 0.00 0.00 0.00 89 1058.2
20260502064917 15 73 1.6 4.8 0.00 0.00 0.00 89 1058.2
20260502064904 15 74 1.6 4.8 0.00 0.00 0.00 89 1058.2
20260502064855 15 73 1.6 4.8 0.00 0.00 0.00 89 1058.2
20260502064532 15 74 1.6 4.8 0.00 0.00 0.00 90 1058.2
20260502064432 15 73 1.6 4.8 0.00 0.00 0.00 90 1058.2
20260502064332 15 73 0.0 4.8 0.00 0.00 0.00 90 1058.2
20260502064201 15 73 0.0 4.8 0.00 0.00 0.00 90 1058.2
20260502064135 15 73 0.0 4.8 0.00 0.00 0.00 90 1058.2
20260502064038 15 73 0.0 1.6 0.00 0.00 0.00 90 1058.2
20260502064030 15 73 0.0 1.6 0.00 0.00 0.00 90 1058.2
20260502064021 15 74 0.0 1.6 0.00 0.00 0.00 90 1058.2
20260502063951 15 73 0.0 1.6 0.00 0.00 0.00 90 1058.2
20260502063947 15 73 0.0 1.6 0.00 0.00 0.00 90 1058.2
20260502063932 15 74 0.0 1.6 0.00 0.00 0.00 90 1058.2
20260502063711 15 73 0.0 1.6 0.00 0.00 0.00 90 1058.2
20260502063438 15 74 1.6 3.2 0.00 0.00 0.00 90 1058.2
20260502063210 15 74 1.6 3.2 0.00 0.00 0.00 90 1058.2
20260502062942 15 73 1.6 3.2 0.00 0.00 0.00 90 1058.2
20260502062700 15 73 1.6 3.2 0.00 0.00 0.00 90 1058.2
20260502062619 15 74 1.6 3.2 0.00 0.00 0.00 90 1058.1
20260502062520 15 74 1.6 3.2 0.00 0.00 0.00 90 1058.1
20260502062418 15 74 0.0 3.2 0.00 0.00 0.00 90 1058.1
20260502062403 15 73 0.0 3.2 0.00 0.00 0.00 90 1058.1
20260502062340 15 74 0.0 3.2 0.00 0.00 0.00 90 1058.1
20260502062016 15 73 0.0 1.6 0.00 0.00 0.00 90 1058.1
20260502061914 15 73 0.0 3.2 0.00 0.00 0.00 90 1058.1
20260502061834 15 73 0.0 3.2 0.00 0.00 0.00 90 1058.1
20260502061813 15 73 0.0 3.2 0.00 0.00 0.00 90 1058.0
20260502061801 15 73 0.0 3.2 0.00 0.00 0.00 90 1058.1
20260502061521 15 73 0.0 3.2 0.00 0.00 0.00 90 1058.0
20260502061248 15 74 1.6 3.2 0.00 0.00 0.00 90 1058.0
20260502061233 15 73 0.0 3.2 0.00 0.00 0.00 90 1058.0
20260502060916 15 74 0.0 3.2 0.00 0.00 0.00 90 1058.0
20260502060906 15 73 0.0 3.2 0.00 0.00 0.00 90 1058.0
20260502060848 15 73 0.0 3.2 0.00 0.00 0.00 90 1058.0
20260502060614 15 73 0.0 3.2 0.00 0.00 0.00 90 1057.9
20260502060607 15 74 0.0 3.2 0.00 0.00 0.00 90 1057.9
20260502060552 15 74 0.0 3.2 0.00 0.00 0.00 90 1057.9
20260502060538 15 73 0.0 1.6 0.00 0.00 0.00 90 1057.9
20260502060526 15 73 0.0 1.6 0.00 0.00 0.00 90 1057.9
20260502060302 15 73 0.0 1.6 0.00 0.00 0.00 90 1057.9
20260502055816 15 73 0.0 1.6 0.00 0.00 0.00 90 1057.9
20260502055802 15 73 0.0 1.6 0.00 0.00 0.00 90 1057.9
20260502055748 15 74 0.0 1.6 0.00 0.00 0.00 90 1057.9
20260502055526 15 74 0.0 1.6 0.00 0.00 0.00 90 1057.9
20260502055509 15 73 0.0 3.2 0.00 0.00 0.00 90 1057.8
20260502055455 15 74 0.0 3.2 0.00 0.00 0.00 90 1057.8
20260502055008 15 73 1.6 3.2 0.00 0.00 0.00 90 1057.8
20260502054951 15 73 1.6 3.2 0.00 0.00 0.00 90 1057.8
20260502054727 15 73 1.6 3.2 0.00 0.00 0.00 90 1057.8
20260502054718 15 75 1.6 3.2 0.00 0.00 0.00 90 1057.8
20260502054711 15 73 1.6 3.2 0.00 0.00 0.00 90 1057.9
20260502054703 15 73 1.6 3.2 0.00 0.00 0.00 90 1057.9
20260502054430 15 73 1.6 3.2 0.00 0.00 0.00 90 1057.9
20260502054203 15 73 1.6 3.2 0.00 0.00 0.00 90 1057.9
20260502053937 15 73 3.2 3.2 0.00 0.00 0.00 90 1057.9
20260502053702 15 74 3.2 3.2 0.00 0.00 0.00 90 1057.9
20260502053604 15 73 3.2 4.8 0.00 0.00 0.00 90 1057.9
20260502053504 15 73 3.2 4.8 0.00 0.00 0.00 90 1057.9
20260502053444 15 73 3.2 4.8 0.00 0.00 0.00 90 1057.9
20260502053433 15 73 3.2 4.8 0.00 0.00 0.00 90 1057.9
20260502053201 15 74 3.2 4.8 0.00 0.00 0.00 90 1057.8
20260502053102 15 74 1.6 4.8 0.00 0.00 0.00 90 1057.8
20260502053002 15 74 1.6 4.8 0.00 0.00 0.00 90 1057.9
20260502052902 15 74 1.6 4.8 0.00 0.00 0.00 90 1057.8
20260502052802 15 73 1.6 4.8 0.00 0.00 0.00 90 1057.8
20260502052702 15 73 1.6 4.8 0.00 0.00 0.00 90 1057.8
20260502052602 15 73 0.0 3.2 0.00 0.00 0.00 90 1057.8
20260502052502 15 74 0.0 3.2 0.00 0.00 0.00 90 1057.8
20260502052447 15 74 0.0 3.2 0.00 0.00 0.00 90 1057.8
20260502052437 15 74 0.0 3.2 0.00 0.00 0.00 90 1057.8
20260502052415 15 74 0.0 1.6 0.00 0.00 0.00 90 1057.8
20260502052100 15 73 0.0 1.6 0.00 0.00 0.00 90 1057.8
20260502051957 15 74 0.0 1.6 0.00 0.00 0.00 90 1057.8
20260502051857 15 73 0.0 1.6 0.00 0.00 0.00 89 1057.8
20260502051757 15 73 0.0 1.6 0.00 0.00 0.00 89 1057.8
20260502051704 15 73 0.0 1.6 0.00 0.00 0.00 89 1057.7
20260502051654 15 73 0.0 1.6 0.00 0.00 0.00 89 1057.7
20260502051603 15 74 0.0 1.6 0.00 0.00 0.00 89 1057.7
20260502051554 15 73 0.0 1.6 0.00 0.00 0.00 89 1057.7
20260502051543 15 73 0.0 1.6 0.00 0.00 0.00 89 1057.8
20260502051311 15 73 0.0 1.6 0.00 0.00 0.00 89 1057.8
20260502051307 15 74 0.0 1.6 0.00 0.00 0.00 89 1057.7
20260502050942 15 73 0.0 3.2 0.00 0.00 0.00 89 1057.8
20260502050842 15 73 0.0 3.2 0.00 0.00 0.00 89 1057.8
20260502050742 15 73 1.6 3.2 0.00 0.00 0.00 89 1057.7
20260502050703 15 74 1.6 3.2 0.00 0.00 0.00 89 1057.7
20260502050643 15 73 1.6 3.2 0.00 0.00 0.00 89 1057.7
20260502050531 15 73 1.6 3.2 0.00 0.00 0.00 89 1057.8
20260502050431 15 73 1.6 3.2 0.00 0.00 0.00 89 1057.8
20260502050330 15 73 1.6 3.2 0.00 0.00 0.00 89 1057.8
20260502050202 15 73 1.6 3.2 0.00 0.00 0.00 89 1057.8
20260502050133 15 73 1.6 3.2 0.00 0.00 0.00 89 1057.8
20260502050030 15 73 1.6 3.2 0.00 0.00 0.00 89 1057.7
20260502045930 15 73 0.0 3.2 0.00 0.00 0.00 89 1057.7
20260502045830 15 73 0.0 3.2 0.00 0.00 0.00 89 1057.7
20260502045704 15 74 0.0 1.6 0.00 0.00 0.00 89 1057.7
20260502045629 15 73 0.0 1.6 0.00 0.00 0.00 89 1057.8
20260502045520 15 74 0.0 1.6 0.00 0.00 0.00 89 1057.7
20260502045450 15 73 0.0 1.6 0.00 0.00 0.00 89 1057.6
20260502045443 15 74 0.0 1.6 0.00 0.00 0.00 89 1057.6
20260502045202 15 73 0.0 3.2 0.00 0.00 0.00 89 1057.6
20260502045118 15 74 0.0 3.2 0.00 0.00 0.00 89 1057.6
20260502045010 15 74 1.6 3.2 0.00 0.00 0.00 88 1057.6
20260502044941 15 73 1.6 3.2 0.00 0.00 0.00 88 1057.6
20260502044932 15 73 1.6 3.2 0.00 0.00 0.00 88 1057.6
20260502044918 15 73 1.6 6.4 0.00 0.00 0.00 88 1057.6
20260502044606 15 73 1.6 6.4 0.00 0.00 0.00 88 1057.7
20260502044504 15 74 3.2 6.4 0.00 0.00 0.00 88 1057.6
20260502044404 15 73 3.2 6.4 0.00 0.00 0.00 88 1057.6
20260502044303 15 73 3.2 6.4 0.00 0.00 0.00 88 1057.6
20260502044229 15 74 1.6 6.4 0.00 0.00 0.00 88 1057.7
20260502044220 15 74 3.2 6.4 0.00 0.00 0.00 88 1057.6
20260502044204 15 73 3.2 6.4 0.00 0.00 0.00 88 1057.6
20260502043937 15 73 1.6 6.4 0.00 0.00 0.00 88 1057.6
20260502043917 15 73 1.6 4.8 0.00 0.00 0.00 88 1057.6
20260502043604 15 73 1.6 4.8 0.00 0.00 0.00 88 1057.6
20260502043504 15 73 0.0 4.8 0.00 0.00 0.00 88 1057.6
20260502043404 15 73 0.0 4.8 0.00 0.00 0.00 88 1057.7
20260502043303 15 73 1.6 4.8 0.00 0.00 0.00 88 1057.7
20260502043204 15 73 1.6 4.8 0.00 0.00 0.00 88 1057.7
20260502043104 15 73 1.6 4.8 0.00 0.00 0.00 88 1057.7
20260502043004 15 76 0.0 3.2 0.00 0.00 0.00 88 1057.7
20260502042903 15 74 1.6 3.2 0.00 0.00 0.00 88 1057.7
20260502042834 15 74 1.6 3.2 0.00 0.00 0.00 88 1057.7
20260502042818 15 73 1.6 3.2 0.00 0.00 0.00 88 1057.6
20260502042802 15 74 1.6 3.2 0.00 0.00 0.00 88 1057.6
20260502042753 15 74 1.6 3.2 0.00 0.00 0.00 88 1057.7
20260502042521 15 73 1.6 3.2 0.00 0.00 0.00 88 1057.6
20260502042507 15 73 0.0 3.2 0.00 0.00 0.00 88 1057.7
20260502042242 15 73 0.0 3.2 0.00 0.00 0.00 88 1057.6
20260502041901 15 73 0.0 3.2 0.00 0.00 0.00 88 1057.6
20260502041844 15 73 0.0 3.2 0.00 0.00 0.00 88 1057.6
20260502041830 15 73 0.0 3.2 0.00 0.00 0.00 88 1057.6
20260502041502 15 74 0.0 3.2 0.00 0.00 0.00 88 1057.6
20260502041402 15 73 1.6 3.2 0.00 0.00 0.00 88 1057.6
20260502041300 15 73 1.6 3.2 0.00 0.00 0.00 88 1057.6
20260502041207 15 74 1.6 3.2 0.00 0.00 0.00 88 1057.6
20260502041157 15 73 1.6 3.2 0.00 0.00 0.00 88 1057.6
20260502041052 15 73 1.6 3.2 0.00 0.00 0.00 88 1057.6
20260502040952 15 73 1.6 3.2 0.00 0.00 0.00 88 1057.6
20260502040850 15 73 0.0 3.2 0.00 0.00 0.00 88 1057.6
20260502040750 15 73 0.0 3.2 0.00 0.00 0.00 88 1057.6
20260502040705 15 73 0.0 3.2 0.00 0.00 0.00 88 1057.6
20260502040650 15 73 1.6 3.2 0.00 0.00 0.00 88 1057.6
20260502040549 15 74 1.6 3.2 0.00 0.00 0.00 88 1057.6
20260502040457 15 73 1.6 3.2 0.00 0.00 0.00 88 1057.7
20260502040449 15 73 0.0 3.2 0.00 0.00 0.00 88 1057.6
20260502040444 15 73 0.0 3.2 0.00 0.00 0.00 88 1057.6
20260502040432 15 73 0.0 3.2 0.00 0.00 0.00 88 1057.7
20260502040422 15 73 0.0 3.2 0.00 0.00 0.00 88 1057.7
20260502040150 15 74 0.0 3.2 0.00 0.00 0.00 88 1057.7
20260502040143 15 73 0.0 3.2 0.00 0.00 0.00 88 1057.7
20260502035646 15 74 0.0 3.2 0.00 0.00 0.00 87 1057.7
20260502035546 15 73 0.0 3.2 0.00 0.00 0.00 87 1057.6
20260502035446 15 74 0.0 1.6 0.00 0.00 0.00 87 1057.6
20260502035342 15 73 0.0 3.2 0.00 0.00 0.00 87 1057.6
20260502035318 15 73 0.0 3.2 0.00 0.00 0.00 87 1057.6
20260502035306 15 73 0.0 3.2 0.00 0.00 0.00 87 1057.6
20260502034942 15 73 1.6 4.8 0.00 0.00 0.00 87 1057.6
20260502034934 15 73 1.6 4.8 0.00 0.00 0.00 87 1057.6
20260502034922 15 73 1.6 4.8 0.00 0.00 0.00 87 1057.6
20260502034637 15 73 1.6 4.8 0.00 0.00 0.00 87 1057.6
20260502034538 15 73 1.6 4.8 0.00 0.00 0.00 87 1057.6
20260502034438 15 73 1.6 4.8 0.00 0.00 0.00 87 1057.6
20260502034418 15 74 1.6 4.8 0.00 0.00 0.00 87 1057.6
20260502034410 15 73 1.6 4.8 0.00 0.00 0.00 87 1057.6
20260502034401 15 74 1.6 4.8 0.00 0.00 0.00 87 1057.6
20260502034107 15 73 1.6 4.8 0.00 0.00 0.00 87 1057.6
20260502034058 15 74 1.6 4.8 0.00 0.00 0.00 87 1057.6
20260502033739 15 73 1.6 4.8 0.00 0.00 0.00 87 1057.5
20260502033701 15 73 1.6 4.8 0.00 0.00 0.00 87 1057.5
20260502033638 15 74 1.6 4.8 0.00 0.00 0.00 87 1057.5
20260502033611 15 73 0.0 4.8 0.00 0.00 0.00 87 1057.6
20260502033600 15 73 1.6 4.8 0.00 0.00 0.00 87 1057.6
20260502033238 15 73 1.6 4.8 0.00 0.00 0.00 87 1057.6
20260502033200 15 73 1.6 4.8 0.00 0.00 0.00 87 1057.6
20260502033138 15 73 1.6 4.8 0.00 0.00 0.00 87 1057.6
20260502033036 15 73 1.6 4.8 0.00 0.00 0.00 87 1057.6
20260502032936 15 75 1.6 4.8 0.00 0.00 0.00 87 1057.6
20260502032917 15 73 1.6 4.8 0.00 0.00 0.00 87 1057.6
20260502032908 15 73 1.6 4.8 0.00 0.00 0.00 87 1057.6
20260502032852 15 74 1.6 4.8 0.00 0.00 0.00 87 1057.6
20260502032532 15 73 3.2 4.8 0.00 0.00 0.00 87 1057.6
20260502032434 15 73 3.2 4.8 0.00 0.00 0.00 87 1057.6
20260502032331 15 73 3.2 4.8 0.00 0.00 0.00 87 1057.6
20260502032221 15 73 3.2 4.8 0.00 0.00 0.00 87 1057.6
20260502032215 15 74 3.2 4.8 0.00 0.00 0.00 87 1057.6
20260502032202 15 73 1.6 4.8 0.00 0.00 0.00 87 1057.6
20260502032149 15 73 1.6 4.8 0.00 0.00 0.00 87 1057.6
20260502032139 15 74 1.6 4.8 0.00 0.00 0.00 87 1057.7
20260502032121 15 73 1.6 4.8 0.00 0.00 0.00 87 1057.7
20260502031902 15 73 1.6 4.8 0.00 0.00 0.00 87 1057.6
20260502031849 15 74 1.6 4.8 0.00 0.00 0.00 87 1057.6
20260502031841 15 73 0.0 4.8 0.00 0.00 0.00 87 1057.6
20260502031822 15 73 0.0 4.8 0.00 0.00 0.00 86 1057.6
20260502031337 15 73 0.0 3.2 0.00 0.00 0.00 86 1057.6
20260502031111 15 73 0.0 3.2 0.00 0.00 0.00 86 1057.7
20260502030552 15 73 0.0 3.2 0.00 0.00 0.00 86 1057.6
20260502030542 15 73 1.6 3.2 0.00 0.00 0.00 86 1057.6
20260502030200 15 73 1.6 3.2 0.00 0.00 0.00 86 1057.6
20260502030120 15 73 1.6 3.2 0.00 0.00 0.00 86 1057.6
20260502030023 15 73 1.6 3.2 0.00 0.00 0.00 86 1057.6
20260502025920 15 74 0.0 3.2 0.00 0.00 0.00 86 1057.6
20260502025820 15 74 0.0 3.2 0.00 0.00 0.00 86 1057.6
20260502025701 15 74 1.6 3.2 0.00 0.00 0.00 86 1057.5
20260502025620 15 73 1.6 4.8 0.00 0.00 0.00 86 1057.6
20260502025521 15 74 1.6 4.8 0.00 0.00 0.00 86 1057.6
20260502025420 15 74 0.0 4.8 0.00 0.00 0.00 86 1057.6
20260502025320 15 74 0.0 4.8 0.00 0.00 0.00 86 1057.6
20260502025201 15 73 0.0 4.8 0.00 0.00 0.00 86 1057.6
20260502025120 15 73 1.6 4.8 0.00 0.00 0.00 86 1057.6
20260502025022 15 73 1.6 4.8 0.00 0.00 0.00 86 1057.6
20260502024944 15 74 1.6 4.8 0.00 0.00 0.00 86 1057.6
20260502024935 15 73 1.6 4.8 0.00 0.00 0.00 86 1057.6
20260502024922 15 73 1.6 4.8 0.00 0.00 0.00 86 1057.6
20260502024653 15 74 1.6 4.8 0.00 0.00 0.00 86 1057.6
20260502024643 15 74 1.6 4.8 0.00 0.00 0.00 86 1057.6
20260502024405 15 73 1.6 4.8 0.00 0.00 0.00 86 1057.6
20260502024339 15 73 1.6 4.8 0.00 0.00 0.00 86 1057.7
20260502024025 15 73 3.2 4.8 0.00 0.00 0.00 86 1057.6
20260502023920 15 73 3.2 4.8 0.00 0.00 0.00 86 1057.6
20260502023858 15 74 1.6 4.8 0.00 0.00 0.00 86 1057.6
20260502023841 15 73 3.2 4.8 0.00 0.00 0.00 86 1057.6
20260502023521 15 73 3.2 4.8 0.00 0.00 0.00 86 1057.6
20260502023420 15 73 1.6 4.8 0.00 0.00 0.00 86 1057.6
20260502023320 15 73 1.6 4.8 0.00 0.00 0.00 86 1057.7
20260502023201 15 73 1.6 4.8 0.00 0.00 0.00 86 1057.6
20260502023120 15 73 1.6 4.8 0.00 0.00 0.00 86 1057.6
20260502023018 15 74 1.6 4.8 0.00 0.00 0.00 86 1057.6
20260502023001 15 73 1.6 4.8 0.00 0.00 0.00 86 1057.6
20260502022953 15 73 1.6 4.8 0.00 0.00 0.00 86 1057.6
20260502022939 15 74 1.6 4.8 0.00 0.00 0.00 86 1057.6
20260502022930 15 73 1.6 4.8 0.00 0.00 0.00 86 1057.6
20260502022700 15 73 1.6 4.8 0.00 0.00 0.00 86 1057.6
20260502022436 15 74 1.6 4.8 0.00 0.00 0.00 86 1057.7
20260502022422 15 73 1.6 3.2 0.00 0.00 0.00 86 1057.7
20260502022116 15 73 1.6 3.2 0.00 0.00 0.00 86 1057.7
20260502022019 15 73 1.6 6.4 0.00 0.00 0.00 86 1057.8
20260502021956 15 74 1.6 6.4 0.00 0.00 0.00 87 1057.8
20260502021947 15 73 1.6 6.4 0.00 0.00 0.00 87 1057.8
20260502021702 15 73 1.6 6.4 0.00 0.00 0.00 87 1057.7
20260502021616 15 73 1.6 6.4 0.00 0.00 0.00 87 1057.8
20260502021517 15 73 1.6 6.4 0.00 0.00 0.00 87 1057.8
20260502021417 15 73 3.2 6.4 0.00 0.00 0.00 87 1057.8
20260502021355 15 73 3.2 6.4 0.00 0.00 0.00 87 1057.8
20260502021345 15 73 3.2 6.4 0.00 0.00 0.00 87 1057.9
20260502021338 15 74 3.2 6.4 0.00 0.00 0.00 87 1057.9
20260502021028 15 73 3.2 4.8 0.00 0.00 0.00 87 1057.9
20260502021012 15 75 3.2 4.8 0.00 0.00 0.00 87 1057.9
20260502021003 15 74 1.6 4.8 0.00 0.00 0.00 86 1057.9
20260502020952 15 74 1.6 4.8 0.00 0.00 0.00 86 1057.9
20260502020944 15 73 1.6 4.8 0.00 0.00 0.00 86 1057.9
20260502020707 15 73 1.6 4.8 0.00 0.00 0.00 86 1057.9
20260502020442 15 74 1.6 4.8 0.00 0.00 0.00 86 1057.9
20260502020202 15 73 0.0 4.8 0.00 0.00 0.00 86 1057.9
20260502020118 15 73 0.0 4.8 0.00 0.00 0.00 86 1057.9
20260502020036 15 73 0.0 3.2 0.00 0.00 0.00 86 1058.0
20260502015918 15 74 0.0 0.0 0.00 0.00 0.00 86 1057.9
20260502015817 15 73 0.0 0.0 0.00 0.00 0.00 86 1058.0
20260502015718 15 74 0.0 0.0 0.00 0.00 0.00 86 1058.0
20260502015704 15 73 0.0 1.6 0.00 0.00 0.00 86 1058.0
20260502015613 15 73 0.0 3.2 0.00 0.00 0.00 86 1057.9
20260502015542 15 73 0.0 3.2 0.00 0.00 0.00 86 1057.9
20260502015535 15 73 0.0 3.2 0.00 0.00 0.00 86 1058.0
20260502015221 15 74 0.0 3.2 0.00 0.00 0.00 86 1058.0
20260502015206 15 73 0.0 3.2 0.00 0.00 0.00 86 1058.0
20260502015112 15 73 1.6 3.2 0.00 0.00 0.00 86 1058.0
20260502015011 15 73 1.6 4.8 0.00 0.00 0.00 86 1058.0
20260502014909 15 75 1.6 4.8 0.00 0.00 0.00 86 1057.9
20260502014810 15 73 1.6 4.8 0.00 0.00 0.00 86 1058.0
20260502014702 15 73 1.6 4.8 0.00 0.00 0.00 86 1058.0
20260502014612 15 73 1.6 4.8 0.00 0.00 0.00 86 1057.9
20260502014503 15 73 1.6 4.8 0.00 0.00 0.00 86 1058.0
20260502014444 15 73 1.6 6.4 0.00 0.00 0.00 86 1057.9
20260502014436 15 73 3.2 6.4 0.00 0.00 0.00 86 1057.9
20260502014421 15 73 3.2 6.4 0.00 0.00 0.00 86 1057.9
20260502014104 15 73 3.2 6.4 0.00 0.00 0.00 86 1057.9
20260502014004 15 73 3.2 6.4 0.00 0.00 0.00 86 1057.9
20260502013903 15 74 3.2 6.4 0.00 0.00 0.00 86 1057.9
20260502013803 15 73 1.6 6.4 0.00 0.00 0.00 86 1057.9
20260502013704 15 73 3.2 6.4 0.00 0.00 0.00 86 1057.9
20260502013636 15 74 1.6 6.4 0.00 0.00 0.00 86 1057.9
20260502013627 15 73 1.6 6.4 0.00 0.00 0.00 86 1057.9
20260502013304 15 74 1.6 6.4 0.00 0.00 0.00 86 1057.9
20260502013207 15 73 1.6 4.8 0.00 0.00 0.00 86 1057.9
20260502013203 15 73 1.6 4.8 0.00 0.00 0.00 86 1057.9
20260502013102 15 73 1.6 4.8 0.00 0.00 0.00 86 1057.9
20260502013004 15 73 0.0 3.2 0.00 0.00 0.00 86 1057.9
20260502012900 15 73 0.0 3.2 0.00 0.00 0.00 86 1058.0
20260502012759 15 74 0.0 3.2 0.00 0.00 0.00 86 1058.0
20260502012707 15 74 0.0 3.2 0.00 0.00 0.00 86 1058.0
20260502012658 15 73 0.0 3.2 0.00 0.00 0.00 86 1058.0
20260502012559 15 73 0.0 1.6 0.00 0.00 0.00 86 1058.1
20260502012456 15 73 0.0 3.2 0.00 0.00 0.00 86 1058.0
20260502012354 15 73 0.0 3.2 0.00 0.00 0.00 86 1058.0
20260502012253 15 73 1.6 3.2 0.00 0.00 0.00 86 1058.1
20260502012203 15 73 1.6 3.2 0.00 0.00 0.00 86 1058.1
20260502012154 15 73 1.6 3.2 0.00 0.00 0.00 86 1058.1
20260502012118 15 73 0.0 3.2 0.00 0.00 0.00 86 1058.1
20260502012057 15 73 1.6 3.2 0.00 0.00 0.00 86 1058.1
20260502012042 15 73 1.6 3.2 0.00 0.00 0.00 86 1058.2
20260502012021 15 73 1.6 3.2 0.00 0.00 0.00 86 1058.1
20260502011438 15 73 1.6 3.2 0.00 0.00 0.00 86 1058.1
20260502011338 15 73 1.6 4.8 0.00 0.00 0.00 86 1058.1
20260502011234 15 73 1.6 4.8 0.00 0.00 0.00 86 1058.1
20260502011201 15 73 1.6 6.4 0.00 0.00 0.00 86 1058.1
20260502011133 15 73 1.6 6.4 0.00 0.00 0.00 86 1058.1
20260502011034 15 73 1.6 8.0 0.00 0.00 0.00 86 1058.1
20260502010933 15 76 3.2 8.0 0.00 0.00 0.00 86 1058.1
20260502010832 15 74 3.2 11.3 0.00 0.00 0.00 86 1058.1
20260502010752 15 74 3.2 11.3 0.00 0.00 0.00 86 1058.1
20260502010740 15 73 3.2 11.3 0.00 0.00 0.00 86 1058.1
20260502010736 15 73 4.8 11.3 0.00 0.00 0.00 86 1058.2
20260502010717 15 73 4.8 11.3 0.00 0.00 0.00 86 1058.1
20260502010438 15 74 3.2 11.3 0.00 0.00 0.00 86 1058.1
20260502010419 15 73 3.2 11.3 0.00 0.00 0.00 86 1058.1
20260502010410 15 73 3.2 11.3 0.00 0.00 0.00 86 1058.1
20260502010145 15 73 3.2 11.3 0.00 0.00 0.00 86 1058.1
20260502010134 15 74 1.6 11.3 0.00 0.00 0.00 86 1058.1
20260502010121 15 148 1.6 4.8 0.00 0.00 0.00 87 1058.1
20260502005856 15 148 1.6 4.8 0.00 0.00 0.00 87 1058.1
20260502005624 15 149 1.6 4.8 0.00 0.00 0.00 87 1058.1
20260502005616 15 149 1.6 4.8 0.00 0.00 0.00 87 1058.1
20260502005607 15 149 1.6 4.8 0.00 0.00 0.00 87 1058.1
20260502005338 15 149 1.6 4.8 0.00 0.00 0.00 87 1058.1
20260502005321 15 149 0.0 3.2 0.00 0.00 0.00 87 1058.2
20260502004815 15 149 0.0 3.2 0.00 0.00 0.00 87 1058.1
20260502004807 15 149 0.0 3.2 0.00 0.00 0.00 87 1058.1
20260502004754 15 149 0.0 3.2 0.00 0.00 0.00 87 1058.1
20260502004213 15 149 0.0 1.6 0.00 0.00 0.00 87 1058.2
20260502004201 15 148 0.0 0.0 0.00 0.00 0.00 87 1058.2
20260502004112 15 149 0.0 1.6 0.00 0.00 0.00 87 1058.2
20260502004015 15 149 0.0 3.2 0.00 0.00 0.00 87 1058.2
20260502003911 15 149 0.0 3.2 0.00 0.00 0.00 87 1058.2
20260502003842 15 149 1.6 4.8 0.00 0.00 0.00 87 1058.3
20260502003822 15 149 1.6 4.8 0.00 0.00 0.00 87 1058.3
20260502003508 15 149 1.6 4.8 0.00 0.00 0.00 87 1058.3
20260502003441 15 149 1.6 4.8 0.00 0.00 0.00 87 1058.3
20260502003432 15 149 1.6 4.8 0.00 0.00 0.00 87 1058.3
20260502003417 15 149 1.6 4.8 0.00 0.00 0.00 87 1058.4
20260502003106 15 149 1.6 4.8 0.00 0.00 0.00 87 1058.4
20260502003017 15 149 0.0 4.8 0.00 0.00 0.00 87 1058.4
20260502002903 15 149 0.0 4.8 0.00 0.00 0.00 87 1058.4
20260502002803 15 149 0.0 4.8 0.00 0.00 0.00 87 1058.4
20260502002714 15 150 0.0 0.0 0.00 0.00 0.00 87 1058.4
20260502002703 15 150 0.0 0.0 0.00 0.00 0.00 87 1058.4
20260502002601 15 150 0.0 0.0 0.00 0.00 0.00 87 1058.4
20260502002501 15 150 0.0 0.0 0.00 0.00 0.00 87 1058.4
20260502002400 15 149 0.0 0.0 0.00 0.00 0.00 86 1058.4
20260502002258 15 149 0.0 0.0 0.00 0.00 0.00 86 1058.4
20260502002207 15 150 0.0 0.0 0.00 0.00 0.00 87 1058.5
20260502002159 15 150 0.0 0.0 0.00 0.00 0.00 87 1058.5
20260502002059 15 150 0.0 0.0 0.00 0.00 0.00 87 1058.5
20260502001957 15 149 0.0 0.0 0.00 0.00 0.00 87 1058.5
20260502001854 15 149 0.0 0.0 0.00 0.00 0.00 87 1058.6
20260502001753 15 150 0.0 0.0 0.00 0.00 0.00 87 1058.5
20260502001704 15 149 0.0 0.0 0.00 0.00 0.00 87 1058.6
20260502001653 15 150 0.0 0.0 0.00 0.00 0.00 87 1058.6
20260502001553 15 150 0.0 0.0 0.00 0.00 0.00 87 1058.6
20260502001517 15 149 0.0 0.0 0.00 0.00 0.00 87 1058.6
20260502001509 15 150 0.0 0.0 0.00 0.00 0.00 87 1058.7
20260502001202 15 149 0.0 0.0 0.00 0.00 0.00 87 1058.7
20260502001147 15 149 0.0 0.0 0.00 0.00 0.00 87 1058.7
20260502001047 15 149 0.0 0.0 0.00 0.00 0.00 87 1058.7
20260502000948 15 149 0.0 0.0 0.00 0.00 0.00 87 1058.7
20260502000848 15 150 0.0 0.0 0.00 0.00 0.00 87 1058.7
20260502000742 15 149 0.0 0.0 0.00 0.00 0.00 86 1058.8
20260502000701 15 149 0.0 0.0 0.00 0.00 0.00 86 1058.8
20260502000640 15 150 0.0 0.0 0.00 0.00 0.00 86 1058.9
20260502000541 15 150 0.0 0.0 0.00 0.00 0.00 86 1058.9
20260502000441 15 150 0.0 0.0 0.00 0.00 0.00 86 1058.8
20260502000424 15 149 0.0 0.0 0.00 0.00 0.00 86 1058.9
20260502000402 15 149 0.0 0.0 0.00 0.00 0.00 86 1058.9
20260502000058 15 150 0.0 0.0 0.00 0.00 0.00 86 1059.0
20260502000043 15 150 0.0 0.0 0.00 0.00 0.00 86 1059.0
20260502000032 15 149 0.0 0.0 0.00 0.00 0.00 86 1059.0
20260502000022 15 150 0.0 0.0 0.00 0.00 0.00 86 1059.0
20260501235756 15 150 0.0 0.0 0.00 0.00 0.00 86 1059.0
20260501235434 15 150 0.0 0.0 0.00 0.00 0.00 86 1059.0
20260501235331 15 149 0.0 0.0 0.00 0.00 0.00 86 1059.0
20260501235233 15 150 0.0 0.0 0.00 0.00 0.00 86 1059.0
20260501235201 15 150 0.0 0.0 0.00 0.00 0.00 86 1059.0
20260501235131 15 150 0.0 0.0 0.00 0.00 0.00 86 1059.1
20260501235032 15 150 0.0 0.0 0.00 0.00 0.00 86 1059.0
20260501234955 15 149 0.0 0.0 0.00 0.00 0.00 86 1059.0
20260501234948 15 150 0.0 0.0 0.00 0.00 0.00 86 1059.0
20260501234701 15 149 0.0 0.0 0.00 0.00 0.00 86 1059.0
20260501234627 15 149 0.0 0.0 0.00 0.00 0.00 86 1059.0
20260501234527 15 150 0.0 0.0 0.00 0.00 0.00 86 1059.1
20260501234427 15 150 0.0 0.0 0.00 0.00 0.00 86 1059.1
20260501234327 15 150 0.0 0.0 0.00 0.00 0.00 86 1059.0
20260501234231 15 149 0.0 0.0 0.00 0.00 0.00 86 1059.0
20260501234201 15 150 0.0 0.0 0.00 0.00 0.00 86 1059.0
20260501234127 15 149 0.0 0.0 0.00 0.00 0.00 86 1059.0
20260501234026 15 149 0.0 0.0 0.00 0.00 0.00 86 1059.0
20260501233952 15 150 0.0 0.0 0.00 0.00 0.00 86 1059.0
20260501233946 15 150 0.0 0.0 0.00 0.00 0.00 86 1059.1
20260501233701 15 150 0.0 0.0 0.00 0.00 0.00 86 1059.0
20260501233620 15 149 0.0 0.0 0.00 0.00 0.00 86 1059.0
20260501233522 15 149 0.0 0.0 0.00 0.00 0.00 86 1059.1
20260501233420 15 150 0.0 0.0 0.00 0.00 0.00 86 1059.1
20260501233317 15 149 0.0 0.0 0.00 0.00 0.00 86 1059.1
20260501233201 15 150 0.0 0.0 0.00 0.00 0.00 86 1059.1
20260501233115 15 150 0.0 0.0 0.00 0.00 0.00 86 1059.1
20260501233009 15 149 0.0 0.0 0.00 0.00 0.00 86 1059.1
20260501232909 15 150 0.0 0.0 0.00 0.00 0.00 86 1059.1
20260501232807 15 149 0.0 0.0 0.00 0.00 0.00 86 1059.1
20260501232701 15 149 0.0 0.0 0.00 0.00 0.00 86 1059.1
20260501232607 15 150 0.0 0.0 0.00 0.00 0.00 86 1059.1
20260501232508 15 150 0.0 0.0 0.00 0.00 0.00 86 1059.1
20260501232407 15 149 0.0 0.0 0.00 0.00 0.00 86 1059.1
20260501232307 15 150 0.0 0.0 0.00 0.00 0.00 86 1059.1
20260501232202 15 150 0.0 0.0 0.00 0.00 0.00 86 1059.1
20260501232127 15 149 0.0 0.0 0.00 0.00 0.00 86 1059.1
20260501232118 15 150 0.0 0.0 0.00 0.00 0.00 86 1059.1
20260501232104 15 149 0.0 0.0 0.00 0.00 0.00 86 1059.1
20260501232055 15 150 0.0 0.0 0.00 0.00 0.00 86 1059.1
20260501231828 15 149 0.0 0.0 0.00 0.00 0.00 86 1059.1
20260501231507 15 149 0.0 0.0 0.00 0.00 0.00 86 1059.1
20260501231406 15 150 0.0 0.0 0.00 0.00 0.00 86 1059.0
20260501231307 15 150 0.0 0.0 0.00 0.00 0.00 86 1059.0
20260501231210 15 150 0.0 0.0 0.00 0.00 0.00 86 1059.0
20260501231201 15 149 0.0 0.0 0.00 0.00 0.00 86 1059.0
20260501231107 15 150 0.0 0.0 0.00 0.00 0.00 86 1059.0
20260501231007 15 149 0.0 0.0 0.00 0.00 0.00 86 1059.0
20260501230907 15 150 0.0 0.0 0.00 0.00 0.00 86 1059.0
20260501230807 14 150 0.0 0.0 0.00 0.00 0.00 86 1059.0
20260501230710 14 150 0.0 0.0 0.00 0.00 0.00 86 1059.0
20260501230701 14 149 0.0 0.0 0.00 0.00 0.00 86 1059.0
20260501230638 14 150 0.0 0.0 0.00 0.00 0.00 86 1059.0
20260501230627 14 149 0.0 0.0 0.00 0.00 0.00 86 1059.0
20260501230304 14 149 0.0 0.0 0.00 0.00 0.00 86 1059.1
20260501230234 14 149 0.0 0.0 0.00 0.00 0.00 86 1059.1
20260501230226 14 149 0.0 0.0 0.00 0.00 0.00 86 1059.1
20260501230212 14 150 0.0 0.0 0.00 0.00 0.00 86 1059.1
20260501225937 14 149 0.0 0.0 0.00 0.00 0.00 86 1059.1
20260501225702 14 149 0.0 0.0 0.00 0.00 0.00 86 1059.1
20260501225557 14 149 0.0 0.0 0.00 0.00 0.00 86 1059.1
20260501225456 14 150 0.0 0.0 0.00 0.00 0.00 86 1059.1
20260501225357 14 150 0.0 0.0 0.00 0.00 0.00 86 1059.1
20260501225259 14 149 0.0 0.0 0.00 0.00 0.00 86 1059.1
20260501225204 14 149 0.0 0.0 0.00 0.00 0.00 86 1059.1
20260501225156 14 149 0.0 0.0 0.00 0.00 0.00 86 1059.1
20260501225050 14 149 0.0 0.0 0.00 0.00 0.00 86 1059.1
20260501224950 14 150 0.0 0.0 0.00 0.00 0.00 86 1059.1
20260501224934 14 150 0.0 0.0 0.00 0.00 0.00 86 1059.1
20260501224923 14 149 0.0 0.0 0.00 0.00 0.00 86 1059.1
20260501224650 14 149 0.0 0.0 0.00 0.00 0.00 86 1059.1
20260501224545 14 150 0.0 0.0 0.00 0.00 0.00 86 1059.0
20260501224444 14 149 0.0 0.0 0.00 0.00 0.00 86 1059.0
20260501224344 14 150 0.0 0.0 0.00 0.00 0.00 86 1059.0
20260501224240 14 149 0.0 0.0 0.00 0.00 0.00 86 1059.0
20260501224236 14 150 0.0 0.0 0.00 0.00 0.00 86 1059.0
20260501224226 14 150 0.0 0.0 0.00 0.00 0.00 86 1059.0
20260501224214 14 149 0.0 0.0 0.00 0.00 0.00 86 1059.0
20260501224205 14 149 0.0 0.0 0.00 0.00 0.00 86 1059.0
20260501224158 14 149 0.0 0.0 0.00 0.00 0.00 86 1059.0
20260501223927 14 149 0.0 0.0 0.00 0.00 0.00 86 1059.0
20260501223918 14 150 0.0 0.0 0.00 0.00 0.00 86 1059.0
20260501223420 14 149 0.0 0.0 0.00 0.00 0.00 86 1059.0
20260501223132 14 150 0.0 0.0 0.00 0.00 0.00 86 1059.0
20260501223032 14 149 0.0 0.0 0.00 0.00 0.00 86 1059.0
20260501222932 14 150 0.0 0.0 0.00 0.00 0.00 86 1059.0
20260501222832 14 149 0.0 0.0 0.00 0.00 0.00 86 1059.0
20260501222731 14 149 0.0 0.0 0.00 0.00 0.00 86 1059.0
20260501222700 14 150 0.0 0.0 0.00 0.00 0.00 86 1059.0
20260501222632 14 149 0.0 0.0 0.00 0.00 0.00 86 1059.0
20260501222603 14 150 0.0 0.0 0.00 0.00 0.00 86 1059.0
20260501222555 14 150 0.0 0.0 0.00 0.00 0.00 86 1059.0
20260501222228 14 150 0.0 1.6 0.00 0.00 0.00 85 1059.0
20260501222131 14 150 0.0 1.6 0.00 0.00 0.00 85 1059.0
20260501222118 14 149 0.0 1.6 0.00 0.00 0.00 85 1059.0
20260501222112 14 149 0.0 1.6 0.00 0.00 0.00 85 1059.0
20260501222059 14 150 0.0 1.6 0.00 0.00 0.00 85 1059.0
20260501222051 14 150 0.0 1.6 0.00 0.00 0.00 85 1059.0
20260501221811 14 149 0.0 1.6 0.00 0.00 0.00 85 1059.0